EW5212 Weather Reports


time (UTC)temp
F
wind
direction
speed
knots
gust
knots
rain 1hr
in
rain 24hr
in
rain mn
in
humidity
%
barometer
mb
20260831122017 73 0.0 2.6 0.00 0.00 0.00 97 1020.3
20260831121017 72 0.0 0.0 0.00 0.00 0.00 99 1020.2
20260831120017 72 0.0 0.9 0.00 0.00 0.00 100 1020.0
20260831115017 71 0.0 0.0 0.00 0.00 0.00 99 1020.0
20260831114016 70 0.0 0.0 0.00 0.00 0.00 99 1020.0
20260831113016 70 0.0 0.0 0.00 0.00 0.00 99 1020.0
20260831112016 70 0.0 0.0 0.00 0.00 0.00 98 1019.8
20260831111036 70 0.0 0.0 0.00 0.00 0.00 98 1019.7
20260831110016 70 0.0 0.0 0.00 0.00 0.00 98 1019.6
20260831105017 70 0.0 0.0 0.00 0.00 0.00 98 1019.6
20260831104017 70 0.0 0.0 0.00 0.00 0.00 98 1019.6
20260831103016 70 0.0 0.0 0.00 0.00 0.00 98 1019.5
20260831102016 71 0.0 0.0 0.00 0.00 0.00 98 1019.6
20260831101017 71 0.0 0.0 0.00 0.00 0.00 97 1019.5
20260831100056 71 0.0 0.0 0.00 0.00 0.00 97 1019.2
20260831095016 71 0.0 0.0 0.00 0.00 0.00 97 1019.3
20260831094016 72 0.0 0.0 0.00 0.00 0.00 97 1019.3
20260831093016 72 0.0 0.0 0.00 0.00 0.00 96 1019.3
20260831092016 72 0.0 0.0 0.00 0.00 0.00 96 1019.3
20260831091016 72 0.0 0.0 0.00 0.00 0.00 96 1019.3
20260831090016 73 0.0 0.0 0.00 0.00 0.00 95 1019.4
20260831085056 73 0.0 0.0 0.00 0.00 0.00 95 1019.3
20260831084016 74 0.0 0.0 0.00 0.00 0.00 94 1019.3
20260831083036 74 0.0 0.9 0.00 0.00 0.00 93 1019.4
20260831082016 74 0.0 0.0 0.00 0.00 0.00 92 1019.3
20260831081016 75 0.0 0.9 0.00 0.00 0.00 91 1019.3
20260831080016 75 0.0 2.6 0.00 0.00 0.00 91 1019.2
20260831075016 75 0.0 2.6 0.00 0.00 0.00 91 1019.1
20260831074016 75 0.0 0.9 0.00 0.00 0.00 90 1019.2
20260831073017 75 0.0 3.5 0.00 0.00 0.00 91 1019.3
20260831072016 75 0.0 1.7 0.00 0.00 0.00 91 1019.3
20260831071017 75 0.0 0.9 0.00 0.00 0.00 91 1019.4
20260831070016 75 0.0 1.7 0.00 0.00 0.00 91 1019.6
20260831065016 75 0.0 0.9 0.00 0.00 0.00 92 1019.4
20260831064016 74 0.0 0.9 0.00 0.00 0.00 93 1019.4
20260831063016 74 0.0 0.0 0.00 0.00 0.00 94 1019.5
20260831062016 73 0.0 0.9 0.00 0.00 0.00 95 1019.6
20260831061016 73 0.0 0.9 0.00 0.00 0.00 97 1019.6
20260831060016 72 0.0 0.0 0.00 0.00 0.00 97 1019.6
20260831055036 72 0.0 0.0 0.00 0.00 0.00 97 1019.8
20260831054036 72 0.0 0.0 0.00 0.00 0.00 97 1019.8
20260831053016 73 0.0 0.0 0.00 0.00 0.00 97 1019.9
20260831052017 73 0.0 0.0 0.00 0.00 0.00 97 1019.9
20260831051016 73 0.0 0.0 0.00 0.00 0.00 96 1020.0
20260831050016 73 0.0 0.0 0.00 0.00 0.00 96 1020.1
20260831045036 74 0.0 0.0 0.00 0.00 0.00 96 1020.1
20260831044016 74 0.0 0.0 0.00 0.00 0.00 96 1020.1
20260831043016 74 0.0 0.0 0.00 0.00 0.00 96 1020.2
20260831042016 74 0.0 0.0 0.00 0.00 0.00 96 1020.2
20260831041016 74 0.0 0.0 0.00 0.00 0.00 96 1020.2
20260831040016 74 0.0 0.0 0.00 0.00 0.00 96 1020.2
20260831035015 74 0.0 0.0 0.00 0.00 0.00 96 1020.1
20260831034016 74 0.0 0.0 0.00 0.00 0.00 97 1020.3
20260831033016 74 0.0 0.0 0.00 0.00 0.00 97 1020.4
20260831032016 74 0.0 0.0 0.00 0.00 0.00 97 1020.4
20260831031016 74 0.0 0.0 0.00 0.00 0.00 96 1020.5
20260831030016 74 0.0 0.0 0.00 0.00 0.00 96 1020.6
20260831025015 74 0.0 0.0 0.00 0.00 0.00 96 1020.6
20260831024016 74 0.0 0.0 0.00 0.00 0.00 97 1020.7
20260831023036 74 0.0 0.0 0.00 0.00 0.00 96 1020.7
20260831022016 74 0.0 0.0 0.00 0.00 0.00 96 1020.7
20260831021016 74 0.0 0.0 0.00 0.00 0.00 96 1020.6
20260831020016 74 0.0 0.0 0.00 0.00 0.00 96 1020.6
20260831015037 74 0.0 0.0 0.00 0.00 0.00 96 1020.7
20260831014016 75 0.0 0.0 0.00 0.00 0.00 95 1020.7
20260831013017 75 0.0 0.0 0.00 0.00 0.00 95 1020.6
20260831012016 75 0.0 0.0 0.00 0.00 0.00 94 1020.7
20260831011016 75 0.0 0.0 0.00 0.00 0.00 94 1020.7
20260831010036 75 0.0 0.0 0.00 0.00 0.00 94 1020.6
20260831005016 76 0.0 0.0 0.00 0.00 0.00 92 1020.5
20260831004036 76 0.0 0.0 0.00 0.00 0.00 92 1020.1
20260831003016 77 0.0 0.0 0.00 0.00 0.00 90 1019.8
20260831002016 78 0.0 0.0 0.00 0.00 0.00 90 1019.7
20260831001015 78 0.0 0.0 0.00 0.00 0.00 88 1019.6
20260831000036 79 0.0 0.0 0.00 0.00 0.00 87 1019.7
20260830235015 80 0.0 0.0 0.00 0.00 0.00 86 1019.6
20260830234016 81 0.0 0.0 0.00 0.00 0.00 83 1019.7
20260830233015 83 0.0 0.0 0.00 0.00 0.00 80 1019.9
20260830232015 85 0.0 0.9 0.00 0.00 0.00 76 1020.1
20260830231016 87 0.0 1.7 0.00 0.00 0.00 70 1019.8
20260830230015 88 0.0 0.9 0.00 0.00 0.00 71 1019.9
20260830225015 90 0.0 0.0 0.00 0.00 0.00 67 1019.8
20260830224015 90 0.0 1.7 0.00 0.00 0.00 67 1019.8
20260830223037 90 270 1.7 3.5 0.00 0.00 0.00 64 1019.8
20260830222016 91 293 0.9 4.3 0.00 0.00 0.00 63 1019.8
20260830221015 91 270 0.9 5.2 0.00 0.00 0.00 65 1019.9
20260830220015 92 270 0.9 1.7 0.00 0.00 0.00 62 1019.9
20260830215015 92 0.0 1.7 0.00 0.00 0.00 64 1019.8
20260830214015 92 0.0 1.7 0.00 0.00 0.00 62 1019.8
20260830213016 91 270 0.9 3.5 0.00 0.00 0.00 62 1019.8
20260830212015 91 293 0.9 2.6 0.00 0.00 0.00 63 1019.6
20260830211015 92 0.0 1.7 0.00 0.00 0.00 65 1019.6
20260830210016 91 293 0.9 2.6 0.00 0.00 0.00 64 1019.6
20260830205015 91 270 0.9 2.6 0.00 0.00 0.00 64 1019.7
20260830204015 92 270 0.9 3.5 0.00 0.00 0.00 63 1019.8
20260830203016 91 338 0.9 2.6 0.00 0.00 0.00 63 1019.9
20260830202015 91 113 0.9 3.5 0.00 0.00 0.00 64 1020.1
20260830201015 90 270 1.7 6.1 0.00 0.00 0.00 67 1020.0
20260830200015 90 270 0.9 2.6 0.00 0.00 0.00 65 1020.1
20260830195015 90 90 0.9 5.2 0.00 0.00 0.00 67 1020.4
20260830194016 90 270 0.9 4.3 0.00 0.00 0.00 66 1020.6
20260830193015 89 0.0 1.7 0.00 0.00 0.00 67 1020.9
20260830192015 89 270 2.6 5.2 0.00 0.00 0.00 67 1021.1
20260830191015 90 270 0.9 3.5 0.00 0.00 0.00 66 1021.2
20260830190015 89 45 0.9 3.5 0.00 0.00 0.00 68 1021.3
20260830185015 90 270 0.9 4.3 0.00 0.00 0.00 66 1021.4
20260830184015 90 293 0.9 2.6 0.00 0.00 0.00 68 1021.6
20260830183015 90 270 1.7 6.1 0.00 0.00 0.00 67 1021.7
20260830182015 90 293 0.9 1.7 0.00 0.00 0.00 66 1021.8
20260830181015 89 0 0.9 1.7 0.00 0.00 0.00 70 1022.0
20260830180015 89 270 0.9 3.5 0.00 0.00 0.00 70 1022.0
20260830175015 89 270 0.9 5.2 0.00 0.00 0.00 69 1022.2
20260830174015 88 68 0.9 1.7 0.00 0.00 0.00 70 1022.3
20260830173015 88 90 0.9 3.5 0.00 0.00 0.00 71 1022.3
20260830172015 88 248 0.9 3.5 0.00 0.00 0.00 71 1022.5
20260830171015 87 270 1.7 7.0 0.00 0.00 0.00 72 1022.8
20260830170015 87 23 0.9 1.7 0.00 0.00 0.00 73 1022.8
20260830165015 86 270 0.9 5.2 0.00 0.00 0.00 73 1022.9
20260830164017 86 293 0.9 3.5 0.00 0.00 0.00 73 1023.0
20260830163015 85 270 1.7 3.5 0.00 0.00 0.00 73 1023.1
20260830162015 85 293 1.7 6.1 0.00 0.00 0.00 73 1023.2
20260830161017 85 270 0.9 3.5 0.00 0.00 0.00 73 1023.3
20260830160017 84 315 0.9 2.6 0.00 0.00 0.00 76 1023.4
20260830155017 84 68 0.9 2.6 0.00 0.00 0.00 76 1023.5
20260830154037 84 293 0.9 5.2 0.00 0.00 0.00 77 1023.6
20260830153017 84 270 1.7 5.2 0.00 0.00 0.00 77 1023.7
20260830152037 83 68 0.9 2.6 0.00 0.00 0.00 78 1023.7
20260830151015 82 270 0.9 2.6 0.00 0.00 0.00 78 1023.6
20260830150017 83 270 0.9 3.5 0.00 0.00 0.00 77 1023.7
20260830145017 82 338 0.9 3.5 0.00 0.00 0.00 79 1023.7
20260830144017 81 68 1.7 5.2 0.00 0.00 0.00 82 1023.8
20260830143037 80 270 0.9 2.6 0.00 0.00 0.00 83 1023.8
20260830142037 80 0.0 0.9 0.00 0.00 0.00 86 1023.7
20260830141037 79 270 0.9 4.3 0.00 0.00 0.00 87 1023.8
20260830140018 78 0.0 1.7 0.00 0.00 0.00 88 1023.8
20260830135017 79 270 0.9 3.5 0.00 0.00 0.00 87 1024.1
20260830134037 79 270 0.9 2.6 0.00 0.00 0.00 88 1024.3
20260830133017 79 0.0 0.9 0.00 0.00 0.00 90 1024.4
20260830132017 77 0.0 1.7 0.00 0.00 0.00 94 1024.5
20260830131037 75 90 0.9 2.6 0.00 0.00 0.00 96 1024.5
20260830130017 74 0.0 2.6 0.00 0.00 0.00 99 1024.5
20260830125017 73 0.0 0.9 0.00 0.00 0.00 100 1024.6
20260830124017 72 0.0 0.9 0.00 0.00 0.00 100 1024.7
20260830123017 72 0.0 2.6 0.00 0.00 0.00 100 1024.6